SCP
0 0 0 0 0 0 0 0 0 0 0 0 0 0 0 0 0 0 0 0 0 -0 0 -0 -0 -0 -0 -0 0 0 0 0 0 0 0 0 0 0 0 0 0 0 0 0 0 0 0 0 0 0 0 0 0 0
0 0 0 0 0 0 0 0 0 0 0 0 0 0 0 0 0 0 0 0 0 0 -0 0 -0 -0 -0 -0 -0 0 0 0 0 0 0 0 0 0 0 0 0 0 0 0 0 0 0 0 0 0 0 0 0 0
-0 0 0 0 0 0 0 0 0 -0 -0 -0 -0 -0 0 0 0 0 0 0 0 0 0 0 0 -0 0 0 -0 0 0 0 0 0 0 0 0 0 0 0 0 0 0 0 0 0 0 0 0 0 0 0 0 0
0 0 0 0 0 0 0 0 0 0 -0 -0 -0 -0 0 0 0 0 0 0 0 0 0 0 0 0 -0 -0 -0 -0 -0 0 0 0 0 0 0 0 0 0 0 0 0 0 0 0 0 0 0 0 0 0 0 0
0 0 0 0 -0 -0 0 0 0 0 0 -0 -0 -0 0 0 0 0 0 0 -0 0 0 0 0 0 0 0 0 -0 0 -0 0 0 0 0 0 0 0 0 0 0 0 0 0 0 0 0 0 0 0 0 0 0
0 0 0 0 -0 0 0 0 0 0 -0 -0 -0 -0 0 0 0 0 0 0 -0 0 0 0 0 0 0 0 0 0 0 -0 0 0 0 0 0 0 0 0 0 0 0 0 0 0 0 0 0 0 0 0 0 0
0 0 0 0 0 0 0 0 0 0 0 -0 -0 -0 0 0 0 0 0 0 -0 0 0 0 0 0 0 0 0 0 0 0 0 0 0 0 0 0 0 0 0 0 0 0 0 0 0 0 0 0 0 0 0 0
0 0 0 0 0 -0 0 0 0 0 0 0 0 0 0 0 0 0 0 0 -0 0 0 0 0 0 0 0 -0 0 0 0 0 0 0 0 0 0 0 0 0 0 0 0 0 0 0 0 0 0 0 0 0 0
0 0 0 0 0 -0 -0 0 0 0 0 0 0 0 0 0 0 0 0 0 0 0 0 0 0 0 0 0 0 0 0 0 0 0 0 0 0 0 0 0 0 0 0 0 0 0 0 0 0 0 0 0 0 0
0 0 0 0 0 0 0 -0 0 -0 0 0 0 0 0 0 0 0 0 0 0 0 0 0 0 0 0 0 0 0 0 0 0 0 0 0 0 0 0 0 0 0 0 0 0 0 0 0 0 0 0 0 0 0
0 0 0 0 0 0 0 0 0 -0 -0 0 0 0 0 0 0 0 0 0 0 0 0 0 0 0 0 0 0 0 0 0 0 0 0 0 0 0 -0 -0 -0 0 0 0 0 0 0 0 0 0 0 0 0 0
-0 0 0 0 0 0 0 0 0 0 0 0 0 0 0 0 0 0 0 0 0 0 0 0 0 0 0 0 0 0 0 0 0 0 0 0 0 0 -0 -0 -0 -0 0 0 0 0 0 0 0 0 0 0 0 0
-0 0 0 0 0 0 0 0 0 0 0 0 0 0 0 0 0 0 0 0 0 0 0 0 0 0 0 0 0 0 0 0 0 0 0 0 0 0 -0 -0 -0 -0 0 0 0 0 0 0 0 0 0 0 0 0
0 0 0 0 0 0 0 0 0 0 0 0 0 0 0 0 0 0 0 0 0 0 0 0 0 0 0 0 0 0 0 0 0 0 0 0 0 0 0 0 -0 -0 -0 0 0 0 0 0 0 0 0 0 0 0
0 0 0 0 0 0 0 0 0 0 0 0 0 0 0 0 0 0 0 0 0 0 0 0 0 0 0 0 0 0 0 0 0 0 0 0 0 0 0 -0 -0 -0 -0 -0 0 0 0 0 0 0 0 0 0 0
0 0 0 0 0 0 0 0 0 0 0 0 0 0 0 0 0 0 0 0 0 0 0 0 0 0 0 0 0 0 0 0 0 0 0 0 0 0 0 0 -0 -0 -0 -0 0 0 0 0 0 0 0 0 0 0
0 0 0 0 0 0 0 0 0 0 0 0 0 0 0 -0 -0 0 0 0 0 0 0 0 0 0 0 0 0 0 0 0 0 0 0 0 -0 0 0 0 0 -0 -0 -0 -0 0 0 0 0 0 0 0 0 0
0 0 0 0 0 0 0 0 0 0 0 0 0 0 0 0 0 0 0 -0 0 0 0 0 0 0 0 0 0 0 0 0 0 0 0 0 0 0 0 0 0 -0 -0 -0 -0 0 0 0 0 0 0 0 0 0
0 0 0 0 0 0 0 0 0 0 0 0 0 0 0 0 0 0 0 0 -0 0 0 0 0 0 0 0 0 0 0 0 0 0 0 -0 0 0 0 0 0 -0 -0 -0 -0 0 0 0 0 0 0 0 0 0
0 0 0 0 0 0 0 0 0 0 0 0 0 0 0 0 0 0 0 0 0 0 0 0 0 0 0 0 0 0 0 0 0 0 0 0 0 0 0 0 0 0 -0 -0 0 0 0 0 0 0 0 0 0 0
0 0 0 0 0 0 0 0 0 0 0 0 0 0 -0 0 0 0 0 0 0 0 0 0 0 0 0 0 0 0 0 0 0 0 0 0 0 0 0 0 0 0 0 -0 0 0 -0 0 0 0 0 0 0 0
0 0 0 0 0 0 0 0 0 0 0 0 0 0 -0 0 0 0 0 0 0 0 0 0 0 0 0 0 0 0 0 0 0 0 0 0 0 0 0 0 0 0 0 0 0 0 0 0 0 0 0 0 0 0
0 0 0 0 0 0 0 0 0 0 0 0 -0 -0 0 -0 -0 0 0 0 0 0 0 0 0 0 0 0 0 0 0 0 0 0 0 0 0 0 0 0 0 0 0 0 0 0 0 0 0 0 0 0 0 0
0 0 0 0 0 0 0 0 0 0 0 0 0 0 0 -0 0 0 0 0 0 0 0 0 0 0 0 0 0 0 0 0 0 0 0 0 0 0 0 0 0 0 0 0 0 0 0 0 0 0 0 0 0 0
0 0 0 0 0 0 0 -0 0 0 0 -0 0 0 -0 -0 0 -0 0 0 0 0 0 0 0 0 0 0 0 0 0 0 0 -0 0 0 0 0 0 0 0 0 0 0 0 0 0 0 0 0 0 0 0 0
0 0 0 0 0 0 0 -0 0 0 -0 -0 0 0 0 0 0 0 0 -0 0 0 0 0 0 0 0 0 0 0 0 0 0 0 -0 -0 -0 0 0 0 0 0 0 0 0 0 0 0 0 0 0 0 0 0
0 0 0 0 0 0 0 0 0 0 0 0 -0 -0 0 0 0 0 -0 -0 -0 0 0 0 0 0 0 0 0 0 0 0 0 0 0 0 0 0 0 0 0 0 0 0 0 0 0 0 0 0 0 0 0 0
0 0 0 0 0 0 0 0 0 0 0 -0 -0 -0 -0 0 0 0 0 0 0 0 0 0 0 0 0 0 0 0 0 0 0 0 0 0 0 0 0 0 0 0 0 0 0 0 0 0 0 0 0 0 0 0
-0 -0 -0 -0 0 -0 -0 0 0 0 -0 -0 -0 0 0 0 0 0 0 0 -0 -0 0 0 0 0 -0 0 0 0 0 0 0 0 0 0 0 0 0 0 0 0 0 0 0 -0 0 0 0 0 0 0 0 0
-0 -0 -0 0 0 0 0 0 0 -0 -0 0 -0 0 0 0 0 0 -0 0 -0 -0 -0 0 0 0 -0 0 0 0 0 0 0 0 0 0 0 -0 -0 0 0 0 0 0 0 0 0 0 0 0 0 0 0 0
0 -0 -0 0 0 -0 -0 -0 -0 -0 0 -0 -0 -0 -0 -0 0 -0 -0 0 -0 0 -0 0 0 0 0 0 0 0 0 0 0 0 0 0 0 -0 -0 -0 0 0 0 0 0 0 0 -0 0 0 0 0 0 0
-0 0 -0 -0 0 -0 -0 -0 -0 0 -0 0 0 -0 0 -0 -0 -0 0 0 -0 -0 -0 -0 0 0 0 0 0 0 0 0 0 0 0 0 0 0 0 0 0 0 0 0 0 0 -0 -0 0 0 0 -0 0 0
0 -0 -0 0 -0 -0 0 -0 0 -0 0 -0 0 0 -0 0 0 -0 -0 -0 -0 0 -0 -0 -0 -0 -0 0 -0 0 0 0 0 0 0 0 0 0 0 0 0 0 0 0 0 0 -0 -0 -0 -0 -0 -0 0 0
Wind_Speed_500mb
61 58 56 54 52 51 49 47 52 54 53 52 47 44 41 36 24 12 13 19 16 14 15 15 18 21 22 23 11 15 9 7 4 3 5 4 4 6 5 3 4 6 6 9 8 17 12 7 5 8 8 3 11 15
60 60 59 57 55 53 49 43 48 52 51 49 43 39 37 32 24 13 10 11 11 6 6 14 17 17 13 11 11 15 7 5 13 4 1 4 6 4 3 6 3 5 9 3 11 6 15 22 28 14 9 10 14 18
62 61 60 59 59 56 50 43 48 52 50 47 43 34 26 21 19 16 13 9 7 1 6 4 7 7 15 16 12 11 11 5 8 4 6 3 5 6 8 4 7 6 1 2 15 15 16 16 16 14 14 12 14 17
62 63 64 63 61 59 55 48 51 55 51 45 41 31 19 11 13 15 15 15 5 7 10 10 4 2 8 13 10 11 8 11 7 6 5 3 3 6 4 6 7 9 7 13 15 17 20 13 10 10 11 12 15 18
57 63 66 61 60 64 64 61 58 55 51 48 39 26 17 8 12 14 10 12 13 2 10 1 6 3 3 4 6 9 5 4 6 2 1 5 5 3 5 5 6 1 6 7 7 19 3 14 7 7 10 13 15 18
54 58 64 59 59 69 73 70 67 60 52 47 39 20 10 7 14 8 3 6 13 11 6 4 1 6 3 5 11 12 6 10 10 7 8 8 4 8 2 3 7 14 13 6 12 13 17 12 8 9 9 12 14 15
49 56 60 62 62 70 74 74 74 69 61 47 34 19 12 9 9 3 4 9 12 12 5 6 6 7 8 10 8 6 8 5 4 6 4 6 7 5 2 4 25 21 20 21 19 17 10 5 3 6 10 11 11 13
46 51 57 60 61 62 73 76 77 77 67 51 34 19 18 16 15 11 14 9 9 4 6 6 4 10 11 10 8 12 12 7 2 5 7 5 10 7 4 16 31 26 22 17 13 11 11 12 9 9 9 10 12 17
49 51 54 59 61 62 70 76 77 79 72 49 32 19 16 12 7 12 12 16 14 9 7 7 6 4 12 5 4 11 9 7 5 5 5 6 6 6 5 33 34 31 19 18 13 11 14 13 11 8 10 12 14 17
53 53 54 58 60 59 64 75 76 79 71 47 21 6 6 6 11 16 8 5 7 11 11 9 5 7 11 11 11 7 7 4 6 6 8 6 5 8 18 28 30 27 19 20 15 11 12 14 11 10 10 12 13 15
54 55 56 57 59 58 60 73 76 80 73 44 18 9 13 13 7 6 9 11 12 10 16 12 19 7 9 9 4 3 2 3 5 8 6 5 5 20 30 29 26 23 20 14 8 16 18 18 17 15 13 14 14 14
59 56 56 57 59 57 57 71 74 74 68 55 33 41 29 7 10 9 9 8 11 8 16 16 16 14 10 5 8 8 3 4 1 11 5 4 8 32 38 34 30 25 21 19 19 21 24 23 21 18 15 13 13 14
61 56 53 54 57 48 63 67 68 73 73 39 6 7 5 7 7 12 13 8 8 16 19 21 13 15 9 10 4 7 8 3 9 6 4 5 24 36 38 36 32 25 22 21 22 25 27 25 20 16 13 9 9 9
60 56 51 45 41 59 65 67 69 74 41 6 8 9 11 10 11 10 11 10 7 14 27 25 17 12 7 11 3 6 5 7 5 6 6 12 31 39 39 37 35 30 26 25 28 28 27 24 19 14 10 8 5 5
57 52 39 37 57 63 65 68 72 63 9 9 9 9 12 13 19 16 18 21 5 13 25 15 10 14 9 6 5 5 9 7 7 4 3 20 38 43 42 40 34 31 30 31 32 30 27 23 18 13 8 4 3 4
57 52 33 51 59 62 67 70 64 16 5 6 11 11 16 20 11 12 18 15 6 11 10 11 7 7 10 5 10 11 5 6 3 4 16 31 39 41 42 39 33 31 33 35 34 30 27 22 16 11 7 7 6 7
52 44 55 59 67 66 65 55 7 3 6 7 12 15 23 22 19 12 16 14 7 7 10 7 11 8 7 7 6 5 6 3 11 16 22 29 40 42 42 39 36 34 36 38 35 30 23 18 13 9 9 8 8 6
55 56 57 63 63 60 48 8 4 6 10 16 18 17 18 22 22 19 14 4 5 6 5 7 7 11 8 8 5 8 11 12 14 22 25 32 37 40 40 39 37 38 39 39 34 28 21 15 11 11 14 12 8 4
59 61 59 43 40 47 11 5 5 8 13 21 22 20 23 25 22 17 16 11 17 17 10 6 6 6 1 6 11 8 15 18 24 27 29 32 37 40 39 37 37 39 40 40 35 27 20 16 11 12 12 10 7 5
55 55 39 37 51 10 7 8 7 11 11 12 26 22 28 25 19 11 3 8 16 16 9 6 6 11 5 8 8 3 10 21 34 36 33 32 34 38 39 39 38 39 40 37 32 27 22 17 13 12 10 9 7 4
54 39 57 36 11 9 8 8 9 11 16 13 20 28 21 19 16 4 4 2 4 7 1 4 7 7 6 7 9 2 11 24 27 24 35 40 37 35 38 37 37 40 40 38 34 31 26 18 17 15 9 7 3 2
34 46 21 6 4 5 10 11 11 16 10 17 22 21 15 14 15 8 7 11 10 8 12 14 16 19 14 13 11 6 15 24 21 22 31 38 40 39 40 39 41 42 39 37 34 31 25 20 18 15 11 8 4 2
27 16 6 4 5 6 11 8 8 7 6 14 19 12 6 11 20 12 10 17 11 26 22 14 12 9 3 9 10 15 23 24 23 24 31 30 30 33 36 37 40 42 40 37 34 28 24 22 20 17 14 11 7 2
12 4 4 5 6 8 8 7 7 9 8 12 8 7 6 6 16 7 4 8 28 45 41 26 14 9 11 14 13 12 19 22 21 25 27 29 30 32 32 33 37 38 36 35 33 28 24 20 19 16 17 15 12 7
6 3 4 8 7 7 6 7 6 8 11 16 6 4 5 6 5 6 7 12 41 44 42 32 34 23 15 8 8 9 15 20 23 25 26 24 26 31 31 30 33 34 35 34 33 29 24 21 18 17 18 18 16 13
6 4 6 5 5 6 8 7 7 11 8 9 8 9 8 4 2 5 5 22 32 42 45 40 37 15 13 4 4 5 9 18 21 22 26 27 30 34 36 38 38 36 36 32 29 27 23 22 20 15 14 18 24 19
5 2 4 8 8 11 9 6 5 8 8 7 9 11 7 6 7 7 16 33 35 38 38 35 34 26 13 8 3 11 14 18 20 18 22 28 26 28 31 35 36 30 34 34 29 26 24 24 20 15 10 13 18 22
6 5 8 12 10 6 8 7 5 3 6 12 19 9 10 8 8 17 22 31 30 32 28 29 24 9 11 11 4 12 17 18 17 18 23 25 23 25 26 26 25 31 29 30 28 26 25 24 20 16 11 10 13 18
6 7 12 11 2 4 2 5 9 10 16 18 13 8 7 9 20 26 34 36 32 33 34 31 18 16 6 3 12 17 15 20 20 23 30 30 30 28 29 29 27 28 26 28 34 29 27 24 19 16 13 10 11 14
3 5 8 5 5 5 8 10 5 8 13 15 8 7 22 27 27 32 42 39 33 32 28 30 25 17 13 6 7 25 27 29 29 22 23 21 23 22 31 33 30 28 27 29 34 36 34 27 23 20 17 13 12 13
10 5 3 6 5 1 7 16 19 17 17 24 15 18 15 7 30 42 48 56 40 35 32 35 36 24 18 10 11 4 10 33 39 35 27 19 16 22 29 33 31 30 29 32 33 33 33 29 24 24 22 19 16 14
7 4 8 5 0 6 8 11 8 7 15 23 23 15 13 5 8 27 46 55 52 44 46 43 37 29 19 13 17 22 12 10 17 29 33 32 21 21 24 33 36 34 34 33 32 31 32 30 25 25 24 23 20 15
10 14 13 8 4 2 3 4 6 10 6 9 22 21 14 12 11 20 37 56 57 48 51 50 37 17 10 7 13 25 30 18 23 24 26 28 25 15 19 29 34 34 35 34 32 30 30 31 26 25 25 24 22 18
Wind_Direction_500mb
5 4 3 3 2 2 1 0 1 2 3 2 0 0 4 9 17 50 58 55 84 67 63 50 41 35 27 18 8 4 249 69 353 264 280 110 244 86 124 31 333 292 276 220 250 242 224 25 160 291 47 53 355 346
6 7 5 3 3 1 359 359 360 359 359 359 358 358 360 16 35 58 48 44 72 68 82 64 56 50 31 1 345 41 57 28 19 267 113 171 166 151 171 163 160 206 12 74 350 68 97 68 88 90 28 347 348 337
8 9 9 6 4 2 0 358 359 357 354 352 353 354 356 11 27 35 50 36 71 313 181 192 84 36 34 25 29 327 75 30 59 26 5 60 113 258 179 149 136 116 204 126 178 131 122 110 88 55 30 19 357 349
10 11 10 9 9 9 7 3 355 351 347 346 345 343 342 355 23 20 37 23 38 297 283 123 136 69 35 32 64 74 86 74 68 1 39 34 109 308 77 65 338 31 186 141 91 123 135 125 77 41 24 12 359 349
9 10 10 13 17 15 9 2 355 349 344 341 338 335 331 287 325 331 334 12 20 312 332 101 193 210 21 28 120 124 93 18 5 116 74 70 88 194 74 182 114 245 111 237 61 125 12 98 101 35 11 5 360 353
3 6 8 10 10 9 8 5 360 354 347 341 334 322 324 307 320 331 261 307 359 360 279 241 135 178 180 126 127 126 98 57 69 51 76 84 73 295 176 85 111 116 98 69 121 107 101 115 87 22 9 3 359 358
354 357 360 2 1 0 360 0 359 356 349 341 333 304 284 301 318 284 266 267 324 347 289 251 185 175 185 189 185 165 134 112 51 104 87 111 144 261 118 186 153 138 120 104 108 120 123 74 108 26 17 11 17 13
340 344 348 352 353 351 353 355 355 353 348 340 329 297 275 274 281 282 260 272 301 297 254 267 182 184 184 200 195 195 185 169 111 110 166 183 152 207 178 130 151 150 138 125 107 89 112 126 101 45 32 35 33 26
332 332 336 340 345 343 346 350 351 352 350 339 326 305 277 260 258 245 247 275 259 210 269 231 253 151 171 179 162 178 219 194 176 207 138 209 168 213 129 162 164 165 166 156 131 115 122 117 109 72 65 50 48 35
329 329 329 330 335 338 339 344 348 350 351 347 338 321 236 238 256 279 286 198 210 207 223 255 187 194 215 154 188 197 210 141 217 86 146 242 205 116 150 158 162 165 160 157 150 151 144 129 126 105 83 66 54 42
328 330 330 328 328 334 333 340 344 347 354 358 337 282 274 293 268 233 251 223 169 216 202 219 203 189 191 237 152 253 48 137 231 125 256 192 212 159 159 153 155 157 157 165 165 143 152 150 141 126 100 81 69 56
328 331 330 327 325 328 328 336 339 342 342 326 300 277 280 245 225 241 220 194 214 214 171 191 175 203 140 180 231 173 243 193 231 148 234 231 110 155 160 156 153 151 146 139 142 142 141 139 136 125 112 95 81 73
325 331 331 326 321 323 327 332 333 334 334 322 312 289 237 180 224 225 213 209 210 170 168 169 159 165 150 197 180 201 219 122 137 220 230 221 143 162 163 160 156 153 147 144 141 140 139 139 134 129 119 104 92 87
324 330 332 328 326 322 328 328 328 330 330 269 249 275 227 192 233 224 276 290 136 165 159 180 142 195 149 182 159 220 81 186 230 221 239 145 166 165 165 166 160 158 155 152 149 147 148 147 145 139 128 118 100 93
326 331 333 329 324 326 328 324 324 327 252 246 223 247 230 279 286 297 307 289 225 181 152 159 158 203 159 158 205 133 186 227 224 221 140 138 162 164 166 167 165 162 161 159 157 155 155 154 152 146 142 136 121 99
326 334 330 331 321 328 327 324 324 319 239 245 245 270 268 282 308 1 327 330 286 199 192 198 154 195 182 195 187 203 212 223 186 134 123 150 158 163 165 167 167 166 166 163 162 162 162 162 159 154 141 141 141 111
325 328 330 330 324 330 328 324 332 275 251 242 245 260 274 294 306 302 302 317 288 239 243 228 190 163 119 205 205 174 215 29 111 131 145 158 161 163 164 164 165 165 166 167 165 166 168 171 177 186 184 170 157 144
320 325 329 325 326 334 335 331 324 262 258 256 263 301 307 288 290 288 277 284 124 191 11 355 338 213 189 191 195 184 154 132 128 143 144 150 155 160 163 164 165 165 165 167 168 169 173 178 177 173 173 176 166 171
318 322 324 325 329 337 290 280 257 276 262 289 290 303 304 293 290 273 281 265 202 195 149 33 269 249 116 21 323 141 155 159 152 142 142 149 156 159 161 164 163 164 165 167 168 169 173 171 160 157 163 168 167 162
318 320 322 319 318 292 274 260 257 271 278 306 298 306 307 296 306 306 261 171 162 160 147 193 237 206 145 339 351 6 159 156 153 145 147 153 160 161 163 164 165 166 165 167 169 169 167 162 159 152 158 170 164 173
324 324 320 321 286 222 262 280 254 263 295 287 301 317 300 299 308 320 104 119 139 27 246 91 328 359 330 309 2 134 165 163 169 169 168 162 166 166 165 164 166 168 170 171 173 175 173 174 170 165 158 146 143 193
320 328 337 331 263 255 261 247 265 290 272 287 306 312 310 343 2 34 98 45 33 11 335 327 298 303 304 305 275 265 165 154 152 147 157 161 160 167 169 169 169 172 175 177 176 178 179 180 181 181 178 182 135 86
328 341 340 292 279 256 268 275 265 254 273 317 332 326 35 31 328 354 61 12 355 358 346 336 324 317 269 256 201 170 155 152 146 150 154 156 164 169 170 172 172 173 175 179 179 179 180 184 190 187 197 196 196 215
329 307 283 279 256 272 290 258 256 279 286 354 321 12 325 25 29 73 95 13 1 10 27 30 26 47 77 98 103 137 157 160 160 153 158 160 162 168 172 174 174 177 178 178 180 184 187 188 196 201 203 207 210 215
304 248 245 279 247 263 260 301 322 333 317 332 306 359 37 74 47 32 5 29 6 1 3 8 33 35 28 47 91 126 166 174 171 164 166 163 164 164 166 171 176 178 177 181 186 188 193 199 203 203 206 208 210 212
262 215 200 296 305 294 337 319 342 339 327 340 358 348 4 85 40 90 65 14 355 353 356 358 354 348 330 322 89 128 222 186 181 178 174 174 174 174 173 172 175 182 186 183 185 190 196 194 193 198 208 210 206 203
284 269 258 251 294 299 283 297 338 35 294 9 351 347 348 39 33 49 15 353 347 346 347 344 341 332 307 248 211 205 204 186 180 187 186 175 175 176 182 181 183 188 189 187 190 191 192 190 191 193 200 203 206 203
282 286 295 328 302 304 295 308 306 9 22 359 338 351 1 28 35 355 354 349 353 348 346 352 348 358 288 278 204 176 158 154 157 156 154 162 165 171 176 180 184 185 186 190 190 191 189 189 188 189 192 196 199 200
265 302 300 286 307 246 270 2 8 26 359 341 336 355 71 66 46 27 14 6 359 356 1 0 0 342 324 119 191 171 179 185 164 169 169 171 177 184 182 185 193 191 189 197 192 187 192 191 191 191 192 186 186 188
292 311 298 329 336 356 41 6 33 71 36 13 349 92 95 68 47 34 20 6 358 354 349 352 350 348 340 348 60 180 195 200 209 199 188 184 188 189 189 190 190 188 189 186 185 188 189 192 197 191 185 184 180 181
295 313 281 259 237 187 96 110 101 79 51 34 46 60 123 103 41 30 16 13 7 3 357 346 347 334 328 312 238 229 203 208 212 206 188 178 176 188 195 193 188 187 182 182 182 188 193 194 197 199 199 199 200 196
288 286 304 294 34 158 141 181 132 102 55 49 56 73 64 73 31 14 11 6 13 4 357 350 341 321 297 299 231 228 238 168 184 190 204 203 193 202 200 196 195 194 192 190 190 192 195 196 198 201 203 205 205 208
309 293 288 288 296 8 7 129 146 116 108 66 55 47 46 43 40 359 5 11 15 5 357 354 352 336 322 264 231 219 215 198 178 178 182 186 178 180 191 185 185 188 189 192 194 194 192 194 200 202 202 202 204 207
Wind_Speed_850mb
61 58 56 54 52 51 49 47 52 54 53 52 47 44 41 36 24 12 13 19 16 14 15 15 18 21 22 23 11 15 9 7 4 3 5 4 4 6 5 3 4 6 6 9 8 17 12 7 5 8 8 3 11 15
60 60 59 57 55 53 49 43 48 52 51 49 43 39 37 32 24 13 10 11 11 6 6 14 17 17 13 11 11 15 7 5 13 4 1 4 6 4 3 6 3 5 9 3 11 6 15 22 28 14 9 10 14 18
62 61 60 59 59 56 50 43 48 52 50 47 43 34 26 21 19 16 13 9 7 1 6 4 7 7 15 16 12 11 11 5 8 4 6 3 5 6 8 4 7 6 1 2 15 15 16 16 16 14 14 12 14 17
62 63 64 63 61 59 55 48 51 55 51 45 41 31 19 11 13 15 15 15 5 7 10 10 4 2 8 13 10 11 8 11 7 6 5 3 3 6 4 6 7 9 7 13 15 17 20 13 10 10 11 12 15 18
57 63 66 61 60 64 64 61 58 55 51 48 39 26 17 8 12 14 10 12 13 2 10 1 6 3 3 4 6 9 5 4 6 2 1 5 5 3 5 5 6 1 6 7 7 19 3 14 7 7 10 13 15 18
54 58 64 59 59 69 73 70 67 60 52 47 39 20 10 7 14 8 3 6 13 11 6 4 1 6 3 5 11 12 6 10 10 7 8 8 4 8 2 3 7 14 13 6 12 13 17 12 8 9 9 12 14 15
49 56 60 62 62 70 74 74 74 69 61 47 34 19 12 9 9 3 4 9 12 12 5 6 6 7 8 10 8 6 8 5 4 6 4 6 7 5 2 4 25 21 20 21 19 17 10 5 3 6 10 11 11 13
46 51 57 60 61 62 73 76 77 77 67 51 34 19 18 16 15 11 14 9 9 4 6 6 4 10 11 10 8 12 12 7 2 5 7 5 10 7 4 16 31 26 22 17 13 11 11 12 9 9 9 10 12 17
49 51 54 59 61 62 70 76 77 79 72 49 32 19 16 12 7 12 12 16 14 9 7 7 6 4 12 5 4 11 9 7 5 5 5 6 6 6 5 33 34 31 19 18 13 11 14 13 11 8 10 12 14 17
53 53 54 58 60 59 64 75 76 79 71 47 21 6 6 6 11 16 8 5 7 11 11 9 5 7 11 11 11 7 7 4 6 6 8 6 5 8 18 28 30 27 19 20 15 11 12 14 11 10 10 12 13 15
54 55 56 57 59 58 60 73 76 80 73 44 18 9 13 13 7 6 9 11 12 10 16 12 19 7 9 9 4 3 2 3 5 8 6 5 5 20 30 29 26 23 20 14 8 16 18 18 17 15 13 14 14 14
59 56 56 57 59 57 57 71 74 74 68 55 33 41 29 7 10 9 9 8 11 8 16 16 16 14 10 5 8 8 3 4 1 11 5 4 8 32 38 34 30 25 21 19 19 21 24 23 21 18 15 13 13 14
61 56 53 54 57 48 63 67 68 73 73 39 6 7 5 7 7 12 13 8 8 16 19 21 13 15 9 10 4 7 8 3 9 6 4 5 24 36 38 36 32 25 22 21 22 25 27 25 20 16 13 9 9 9
60 56 51 45 41 59 65 67 69 74 41 6 8 9 11 10 11 10 11 10 7 14 27 25 17 12 7 11 3 6 5 7 5 6 6 12 31 39 39 37 35 30 26 25 28 28 27 24 19 14 10 8 5 5
57 52 39 37 57 63 65 68 72 63 9 9 9 9 12 13 19 16 18 21 5 13 25 15 10 14 9 6 5 5 9 7 7 4 3 20 38 43 42 40 34 31 30 31 32 30 27 23 18 13 8 4 3 4
57 52 33 51 59 62 67 70 64 16 5 6 11 11 16 20 11 12 18 15 6 11 10 11 7 7 10 5 10 11 5 6 3 4 16 31 39 41 42 39 33 31 33 35 34 30 27 22 16 11 7 7 6 7
52 44 55 59 67 66 65 55 7 3 6 7 12 15 23 22 19 12 16 14 7 7 10 7 11 8 7 7 6 5 6 3 11 16 22 29 40 42 42 39 36 34 36 38 35 30 23 18 13 9 9 8 8 6
55 56 57 63 63 60 48 8 4 6 10 16 18 17 18 22 22 19 14 4 5 6 5 7 7 11 8 8 5 8 11 12 14 22 25 32 37 40 40 39 37 38 39 39 34 28 21 15 11 11 14 12 8 4
59 61 59 43 40 47 11 5 5 8 13 21 22 20 23 25 22 17 16 11 17 17 10 6 6 6 1 6 11 8 15 18 24 27 29 32 37 40 39 37 37 39 40 40 35 27 20 16 11 12 12 10 7 5
55 55 39 37 51 10 7 8 7 11 11 12 26 22 28 25 19 11 3 8 16 16 9 6 6 11 5 8 8 3 10 21 34 36 33 32 34 38 39 39 38 39 40 37 32 27 22 17 13 12 10 9 7 4
54 39 57 36 11 9 8 8 9 11 16 13 20 28 21 19 16 4 4 2 4 7 1 4 7 7 6 7 9 2 11 24 27 24 35 40 37 35 38 37 37 40 40 38 34 31 26 18 17 15 9 7 3 2
34 46 21 6 4 5 10 11 11 16 10 17 22 21 15 14 15 8 7 11 10 8 12 14 16 19 14 13 11 6 15 24 21 22 31 38 40 39 40 39 41 42 39 37 34 31 25 20 18 15 11 8 4 2
27 16 6 4 5 6 11 8 8 7 6 14 19 12 6 11 20 12 10 17 11 26 22 14 12 9 3 9 10 15 23 24 23 24 31 30 30 33 36 37 40 42 40 37 34 28 24 22 20 17 14 11 7 2
12 4 4 5 6 8 8 7 7 9 8 12 8 7 6 6 16 7 4 8 28 45 41 26 14 9 11 14 13 12 19 22 21 25 27 29 30 32 32 33 37 38 36 35 33 28 24 20 19 16 17 15 12 7
6 3 4 8 7 7 6 7 6 8 11 16 6 4 5 6 5 6 7 12 41 44 42 32 34 23 15 8 8 9 15 20 23 25 26 24 26 31 31 30 33 34 35 34 33 29 24 21 18 17 18 18 16 13
6 4 6 5 5 6 8 7 7 11 8 9 8 9 8 4 2 5 5 22 32 42 45 40 37 15 13 4 4 5 9 18 21 22 26 27 30 34 36 38 38 36 36 32 29 27 23 22 20 15 14 18 24 19
5 2 4 8 8 11 9 6 5 8 8 7 9 11 7 6 7 7 16 33 35 38 38 35 34 26 13 8 3 11 14 18 20 18 22 28 26 28 31 35 36 30 34 34 29 26 24 24 20 15 10 13 18 22
6 5 8 12 10 6 8 7 5 3 6 12 19 9 10 8 8 17 22 31 30 32 28 29 24 9 11 11 4 12 17 18 17 18 23 25 23 25 26 26 25 31 29 30 28 26 25 24 20 16 11 10 13 18
6 7 12 11 2 4 2 5 9 10 16 18 13 8 7 9 20 26 34 36 32 33 34 31 18 16 6 3 12 17 15 20 20 23 30 30 30 28 29 29 27 28 26 28 34 29 27 24 19 16 13 10 11 14
3 5 8 5 5 5 8 10 5 8 13 15 8 7 22 27 27 32 42 39 33 32 28 30 25 17 13 6 7 25 27 29 29 22 23 21 23 22 31 33 30 28 27 29 34 36 34 27 23 20 17 13 12 13
10 5 3 6 5 1 7 16 19 17 17 24 15 18 15 7 30 42 48 56 40 35 32 35 36 24 18 10 11 4 10 33 39 35 27 19 16 22 29 33 31 30 29 32 33 33 33 29 24 24 22 19 16 14
7 4 8 5 0 6 8 11 8 7 15 23 23 15 13 5 8 27 46 55 52 44 46 43 37 29 19 13 17 22 12 10 17 29 33 32 21 21 24 33 36 34 34 33 32 31 32 30 25 25 24 23 20 15
10 14 13 8 4 2 3 4 6 10 6 9 22 21 14 12 11 20 37 56 57 48 51 50 37 17 10 7 13 25 30 18 23 24 26 28 25 15 19 29 34 34 35 34 32 30 30 31 26 25 25 24 22 18
Wind_Direction_850mb
5 4 3 3 2 2 1 0 1 2 3 2 0 0 4 9 17 50 58 55 84 67 63 50 41 35 27 18 8 4 249 69 353 264 280 110 244 86 124 31 333 292 276 220 250 242 224 25 160 291 47 53 355 346
6 7 5 3 3 1 359 359 360 359 359 359 358 358 360 16 35 58 48 44 72 68 82 64 56 50 31 1 345 41 57 28 19 267 113 171 166 151 171 163 160 206 12 74 350 68 97 68 88 90 28 347 348 337
8 9 9 6 4 2 0 358 359 357 354 352 353 354 356 11 27 35 50 36 71 313 181 192 84 36 34 25 29 327 75 30 59 26 5 60 113 258 179 149 136 116 204 126 178 131 122 110 88 55 30 19 357 349
10 11 10 9 9 9 7 3 355 351 347 346 345 343 342 355 23 20 37 23 38 297 283 123 136 69 35 32 64 74 86 74 68 1 39 34 109 308 77 65 338 31 186 141 91 123 135 125 77 41 24 12 359 349
9 10 10 13 17 15 9 2 355 349 344 341 338 335 331 287 325 331 334 12 20 312 332 101 193 210 21 28 120 124 93 18 5 116 74 70 88 194 74 182 114 245 111 237 61 125 12 98 101 35 11 5 360 353
3 6 8 10 10 9 8 5 360 354 347 341 334 322 324 307 320 331 261 307 359 360 279 241 135 178 180 126 127 126 98 57 69 51 76 84 73 295 176 85 111 116 98 69 121 107 101 115 87 22 9 3 359 358
354 357 360 2 1 0 360 0 359 356 349 341 333 304 284 301 318 284 266 267 324 347 289 251 185 175 185 189 185 165 134 112 51 104 87 111 144 261 118 186 153 138 120 104 108 120 123 74 108 26 17 11 17 13
340 344 348 352 353 351 353 355 355 353 348 340 329 297 275 274 281 282 260 272 301 297 254 267 182 184 184 200 195 195 185 169 111 110 166 183 152 207 178 130 151 150 138 125 107 89 112 126 101 45 32 35 33 26
332 332 336 340 345 343 346 350 351 352 350 339 326 305 277 260 258 245 247 275 259 210 269 231 253 151 171 179 162 178 219 194 176 207 138 209 168 213 129 162 164 165 166 156 131 115 122 117 109 72 65 50 48 35
329 329 329 330 335 338 339 344 348 350 351 347 338 321 236 238 256 279 286 198 210 207 223 255 187 194 215 154 188 197 210 141 217 86 146 242 205 116 150 158 162 165 160 157 150 151 144 129 126 105 83 66 54 42
328 330 330 328 328 334 333 340 344 347 354 358 337 282 274 293 268 233 251 223 169 216 202 219 203 189 191 237 152 253 48 137 231 125 256 192 212 159 159 153 155 157 157 165 165 143 152 150 141 126 100 81 69 56
328 331 330 327 325 328 328 336 339 342 342 326 300 277 280 245 225 241 220 194 214 214 171 191 175 203 140 180 231 173 243 193 231 148 234 231 110 155 160 156 153 151 146 139 142 142 141 139 136 125 112 95 81 73
325 331 331 326 321 323 327 332 333 334 334 322 312 289 237 180 224 225 213 209 210 170 168 169 159 165 150 197 180 201 219 122 137 220 230 221 143 162 163 160 156 153 147 144 141 140 139 139 134 129 119 104 92 87
324 330 332 328 326 322 328 328 328 330 330 269 249 275 227 192 233 224 276 290 136 165 159 180 142 195 149 182 159 220 81 186 230 221 239 145 166 165 165 166 160 158 155 152 149 147 148 147 145 139 128 118 100 93
326 331 333 329 324 326 328 324 324 327 252 246 223 247 230 279 286 297 307 289 225 181 152 159 158 203 159 158 205 133 186 227 224 221 140 138 162 164 166 167 165 162 161 159 157 155 155 154 152 146 142 136 121 99
326 334 330 331 321 328 327 324 324 319 239 245 245 270 268 282 308 1 327 330 286 199 192 198 154 195 182 195 187 203 212 223 186 134 123 150 158 163 165 167 167 166 166 163 162 162 162 162 159 154 141 141 141 111
325 328 330 330 324 330 328 324 332 275 251 242 245 260 274 294 306 302 302 317 288 239 243 228 190 163 119 205 205 174 215 29 111 131 145 158 161 163 164 164 165 165 166 167 165 166 168 171 177 186 184 170 157 144
320 325 329 325 326 334 335 331 324 262 258 256 263 301 307 288 290 288 277 284 124 191 11 355 338 213 189 191 195 184 154 132 128 143 144 150 155 160 163 164 165 165 165 167 168 169 173 178 177 173 173 176 166 171
318 322 324 325 329 337 290 280 257 276 262 289 290 303 304 293 290 273 281 265 202 195 149 33 269 249 116 21 323 141 155 159 152 142 142 149 156 159 161 164 163 164 165 167 168 169 173 171 160 157 163 168 167 162
318 320 322 319 318 292 274 260 257 271 278 306 298 306 307 296 306 306 261 171 162 160 147 193 237 206 145 339 351 6 159 156 153 145 147 153 160 161 163 164 165 166 165 167 169 169 167 162 159 152 158 170 164 173
324 324 320 321 286 222 262 280 254 263 295 287 301 317 300 299 308 320 104 119 139 27 246 91 328 359 330 309 2 134 165 163 169 169 168 162 166 166 165 164 166 168 170 171 173 175 173 174 170 165 158 146 143 193
320 328 337 331 263 255 261 247 265 290 272 287 306 312 310 343 2 34 98 45 33 11 335 327 298 303 304 305 275 265 165 154 152 147 157 161 160 167 169 169 169 172 175 177 176 178 179 180 181 181 178 182 135 86
328 341 340 292 279 256 268 275 265 254 273 317 332 326 35 31 328 354 61 12 355 358 346 336 324 317 269 256 201 170 155 152 146 150 154 156 164 169 170 172 172 173 175 179 179 179 180 184 190 187 197 196 196 215
329 307 283 279 256 272 290 258 256 279 286 354 321 12 325 25 29 73 95 13 1 10 27 30 26 47 77 98 103 137 157 160 160 153 158 160 162 168 172 174 174 177 178 178 180 184 187 188 196 201 203 207 210 215
304 248 245 279 247 263 260 301 322 333 317 332 306 359 37 74 47 32 5 29 6 1 3 8 33 35 28 47 91 126 166 174 171 164 166 163 164 164 166 171 176 178 177 181 186 188 193 199 203 203 206 208 210 212
262 215 200 296 305 294 337 319 342 339 327 340 358 348 4 85 40 90 65 14 355 353 356 358 354 348 330 322 89 128 222 186 181 178 174 174 174 174 173 172 175 182 186 183 185 190 196 194 193 198 208 210 206 203
284 269 258 251 294 299 283 297 338 35 294 9 351 347 348 39 33 49 15 353 347 346 347 344 341 332 307 248 211 205 204 186 180 187 186 175 175 176 182 181 183 188 189 187 190 191 192 190 191 193 200 203 206 203
282 286 295 328 302 304 295 308 306 9 22 359 338 351 1 28 35 355 354 349 353 348 346 352 348 358 288 278 204 176 158 154 157 156 154 162 165 171 176 180 184 185 186 190 190 191 189 189 188 189 192 196 199 200
265 302 300 286 307 246 270 2 8 26 359 341 336 355 71 66 46 27 14 6 359 356 1 0 0 342 324 119 191 171 179 185 164 169 169 171 177 184 182 185 193 191 189 197 192 187 192 191 191 191 192 186 186 188
292 311 298 329 336 356 41 6 33 71 36 13 349 92 95 68 47 34 20 6 358 354 349 352 350 348 340 348 60 180 195 200 209 199 188 184 188 189 189 190 190 188 189 186 185 188 189 192 197 191 185 184 180 181
295 313 281 259 237 187 96 110 101 79 51 34 46 60 123 103 41 30 16 13 7 3 357 346 347 334 328 312 238 229 203 208 212 206 188 178 176 188 195 193 188 187 182 182 182 188 193 194 197 199 199 199 200 196
288 286 304 294 34 158 141 181 132 102 55 49 56 73 64 73 31 14 11 6 13 4 357 350 341 321 297 299 231 228 238 168 184 190 204 203 193 202 200 196 195 194 192 190 190 192 195 196 198 201 203 205 205 208
309 293 288 288 296 8 7 129 146 116 108 66 55 47 46 43 40 359 5 11 15 5 357 354 352 336 322 264 231 219 215 198 178 178 182 186 178 180 191 185 185 188 189 192 194 194 192 194 200 202 202 202 204 207